Location: Arcizac
(43.0933°N, 0.0112°E)
Time: 21:23:18
(UTC+00:00)

YAOGAN 1 - Pass Details

Date: 14 December 2019
Orbit: 619 x 621 km, 98.0° (Epoch: 25 January)

Event Time Altitude Azimuth Distance (km) Brightness Sun altitude
Rises 17:06:41 0° 117° (ESE) 2,891 5.6 -7.5°
Reaches altitude 10° 17:09:53 10° 91° (E) 1,990 4.6 -8.0°
Maximum altitude 17:11:59 14° 62° (ENE) 1,770 4.2 -8.4°
Drops below altitude 10° 17:14:06 10° 32° (NNE) 1,997 4.7 -8.7°
Sets 17:17:18 0° 7° (N) 2,909 5.7 -9.2°
